Wind_Speed
8 3 8 9 5 5 9 10 14 21 19 24 18 13 19 17 11 12 15 14 11 11 17 19 22 25 28 30 30 31 33 36 34 30 37 37 37 36 36 33 25 26 25 25
8 6 13 14 10 11 10 11 17 18 22 27 9 14 11 13 15 17 17 13 12 15 16 19 22 27 28 28 27 28 32 34 27 35 39 39 37 39 28 36 25 22 20 20
11 14 15 14 9 11 12 17 14 19 17 35 22 21 24 5 12 17 11 10 13 17 21 22 24 27 27 27 26 29 34 35 34 35 36 36 31 35 34 37 25 20 16 18
14 11 22 14 11 13 14 20 22 20 18 18 20 20 25 8 13 9 11 12 20 18 18 20 24 26 27 29 29 31 33 36 36 34 34 33 30 32 34 35 24 18 16 16
7 10 14 13 14 18 22 21 20 16 15 14 21 7 26 15 4 17 9 12 22 20 21 23 26 27 29 31 31 33 36 37 36 32 36 31 33 32 33 32 26 18 15 14
11 16 15 13 17 19 19 20 22 19 16 11 6 9 31 25 16 17 13 14 16 19 24 25 26 29 30 30 32 35 38 38 35 32 35 32 35 32 32 31 32 20 15 15
13 13 14 12 9 18 18 13 30 26 7 28 9 9 19 29 18 12 12 14 17 18 21 23 26 28 31 35 34 37 39 37 32 31 33 31 32 32 32 29 29 27 17 13
8 11 15 10 9 11 15 11 9 20 18 22 26 20 14 19 8 8 13 16 17 17 20 23 25 29 32 33 34 38 38 36 32 30 29 30 31 30 31 29 28 25 21 18
7 9 20 26 18 18 9 14 16 19 14 13 28 25 4 11 10 12 14 16 19 20 21 23 26 27 32 32 33 36 36 36 32 30 28 27 28 29 29 26 25 24 24 23
14 19 10 20 19 18 18 16 13 19 12 15 17 32 23 17 2 14 15 19 21 23 24 24 26 28 32 33 37 35 35 35 31 29 27 24 26 26 27 26 23 22 24 18
16 17 13 17 12 6 13 20 14 15 13 20 19 18 30 16 13 18 20 21 23 22 22 24 27 30 32 33 36 34 35 36 30 28 24 21 22 23 25 23 22 19 20 20
16 18 16 10 19 20 17 14 18 14 18 21 18 15 30 21 16 19 23 22 20 19 20 24 28 31 33 34 36 37 35 36 33 28 22 19 20 22 24 24 21 19 18 18
15 14 11 8 15 14 6 7 18 17 13 12 13 21 25 32 26 26 22 24 20 18 21 25 29 32 35 35 37 38 35 36 33 29 24 20 21 22 23 23 22 20 18 16
15 13 13 11 13 12 9 18 13 17 14 14 13 17 33 30 25 23 21 21 20 25 26 28 29 33 36 36 37 37 35 34 32 28 26 23 22 21 22 22 21 20 19 19
16 15 9 14 14 18 16 14 14 17 19 19 22 24 23 28 33 19 19 20 24 26 28 30 31 35 35 36 38 37 35 33 32 28 26 24 23 22 22 21 22 22 21 22
21 21 18 18 15 21 20 17 18 19 20 21 25 22 17 23 23 17 18 21 27 28 30 32 33 34 35 38 38 38 36 33 32 27 25 24 24 23 22 21 21 22 23 23
25 26 18 16 17 20 22 20 15 21 24 21 25 17 27 24 15 19 22 25 26 28 31 31 33 33 37 39 39 38 36 34 32 30 27 26 26 26 25 23 24 24 25 26
21 25 23 16 17 19 17 29 19 24 21 24 25 22 21 19 22 22 26 26 28 30 31 33 36 36 38 39 41 38 36 36 35 32 31 29 29 29 28 27 26 26 27 28
24 24 19 17 18 18 24 9 24 23 17 19 15 15 19 23 24 24 27 25 28 32 34 36 37 37 39 40 40 38 37 38 37 35 33 33 32 31 32 31 30 29 30 32
25 26 25 17 26 16 19 25 27 20 16 19 18 18 19 22 22 23 28 30 32 32 34 39 39 39 41 41 41 41 41 41 39 36 35 36 34 34 35 34 32 33 34 34
29 26 19 17 21 20 22 33 27 23 19 21 27 27 24 21 19 25 31 33 34 36 38 39 38 40 42 42 41 42 43 42 38 38 36 35 35 36 38 38 37 37 37 37
32 17 16 21 25 25 33 32 28 24 26 29 29 25 26 28 29 32 35 36 37 38 41 40 40 41 44 42 40 42 43 44 40 36 34 36 38 38 40 42 42 40 39 39
29 30 32 25 23 29 32 33 28 27 28 31 32 31 32 35 36 38 41 40 40 42 42 43 45 45 46 42 41 42 44 47 44 39 36 43 42 42 43 43 43 44 43 41
31 29 36 33 33 34 36 38 35 31 32 33 34 35 36 36 38 40 43 47 46 45 45 45 46 47 46 44 43 42 44 46 44 43 43 47 45 46 48 46 45 45 42 41
25 35 34 35 29 31 33 43 35 34 36 36 37 38 39 40 41 42 45 47 48 47 48 49 48 48 45 47 46 46 47 47 42 41 45 52 49 56 47 45 43 42 41 41
29 30 32 31 31 36 31 38 34 35 37 38 39 39 40 41 43 44 45 47 50 52 51 50 50 46 45 46 48 50 49 44 45 47 51 48 59 67 49 43 41 42 40 38
Wind_Direction
282 247 307 250 275 303 339 344 300 308 307 339 304 339 314 347 341 334 334 333 357 343 343 345 353 352 348 345 343 343 339 331 329 320 320 324 322 325 329 317 303 304 312 313
231 254 266 268 312 336 336 304 323 327 312 320 302 276 299 335 334 332 330 333 342 338 348 353 352 349 348 340 335 336 337 336 326 322 322 324 328 325 321 335 298 294 307 308
227 267 276 274 308 311 311 303 297 311 303 297 336 306 287 351 329 319 337 6 354 345 348 352 345 343 342 341 334 334 335 332 327 323 322 330 327 330 329 334 317 287 291 298
252 239 257 271 301 293 300 300 301 306 296 303 329 303 296 270 332 331 346 358 356 348 345 341 339 339 339 339 339 339 337 334 332 330 328 333 334 329 336 336 324 286 289 299
216 269 264 277 278 277 302 306 308 296 291 288 290 338 284 185 335 346 312 322 340 337 335 338 337 336 337 339 340 341 341 337 334 334 332 334 333 334 338 339 338 309 297 301
258 239 282 276 278 302 308 316 298 319 245 265 319 342 297 303 352 322 335 322 328 337 338 336 335 334 335 339 338 340 339 336 333 332 334 332 334 335 339 342 347 326 301 298
281 275 266 298 296 318 326 336 307 333 215 326 306 300 286 334 323 311 325 334 344 343 331 332 332 329 334 338 340 338 337 336 331 330 333 330 333 336 339 342 350 343 311 303
258 272 255 290 284 267 291 295 302 311 309 321 318 319 214 315 313 300 312 331 333 330 327 328 330 329 336 340 338 337 337 337 334 333 333 331 329 332 334 338 346 349 343 320
242 232 270 278 284 301 280 308 283 296 304 302 300 338 79 337 307 314 315 321 325 328 327 329 330 332 338 337 338 337 341 343 339 336 334 333 332 335 337 341 348 360 350 341
219 207 265 273 298 311 323 322 315 291 323 321 314 300 291 269 319 328 317 323 325 323 326 330 330 335 337 338 342 343 344 342 339 333 332 331 332 335 340 340 341 344 350 341
249 257 249 276 316 259 305 308 344 304 298 268 261 327 310 317 317 308 310 313 317 321 322 328 330 336 337 337 342 346 343 343 339 337 333 332 333 337 340 341 339 340 337 341
255 261 262 276 257 295 287 285 273 279 295 317 341 299 307 312 297 308 304 318 311 310 320 325 331 334 336 336 342 347 344 341 340 339 337 332 338 340 339 339 341 335 338 336
250 262 265 281 277 252 291 301 289 287 295 332 314 293 313 311 309 302 298 312 310 311 324 324 331 334 333 337 342 346 343 340 339 339 337 334 338 341 339 338 335 331 331 328
253 250 255 226 277 312 312 295 299 284 286 297 293 302 297 306 296 288 293 304 309 313 317 321 327 331 331 335 340 343 342 338 337 336 336 334 336 335 336 333 333 329 332 330
264 266 276 276 269 266 270 271 272 283 292 287 281 268 256 283 289 286 286 293 305 311 313 318 323 326 328 333 337 339 338 337 337 331 336 332 331 330 329 328 329 329 328 325
258 258 261 260 268 285 279 263 272 280 279 288 285 298 275 253 276 289 287 290 304 311 311 315 321 324 330 331 335 335 335 336 334 332 330 330 326 326 324 325 323 323 326 322
252 257 265 280 267 248 275 278 262 267 262 265 282 277 311 306 288 286 285 295 303 307 310 319 321 315 326 329 330 331 331 333 333 333 327 323 323 322 321 317 317 319 320 319
251 254 255 263 274 294 279 278 274 283 281 284 278 279 272 275 280 283 294 301 305 306 307 317 324 323 323 327 327 328 329 328 330 327 328 323 318 316 314 310 306 307 309 309
255 260 256 263 262 278 284 298 284 288 284 296 284 276 284 279 284 293 290 296 303 307 305 312 317 320 324 325 323 324 324 326 326 324 325 325 319 315 310 307 304 302 304 305
258 254 257 251 263 230 263 273 278 300 311 296 254 294 283 283 293 286 287 304 306 306 308 313 314 317 324 323 322 323 323 324 322 322 324 323 319 312 307 305 303 301 302 304
276 264 256 265 267 263 265 269 279 294 268 269 279 283 283 285 288 291 295 298 302 305 308 311 314 319 323 323 324 324 320 321 323 322 320 319 319 313 307 304 301 301 302 306
256 256 257 264 259 253 262 271 277 261 253 260 265 274 282 283 284 287 292 295 301 303 308 309 316 319 322 322 323 323 317 318 321 320 315 317 317 312 307 304 302 301 302 305
248 252 240 232 238 263 268 273 279 271 270 270 277 281 284 287 291 294 298 300 302 305 309 312 317 319 321 320 321 320 318 316 316 318 310 312 311 311 307 302 300 299 303 304
253 259 270 261 253 256 262 272 270 273 271 273 279 282 287 292 294 297 299 302 304 307 310 312 315 318 318 318 319 319 317 314 313 314 309 309 313 310 307 302 300 299 302 304
237 252 262 271 266 262 265 268 275 275 276 275 278 281 285 288 290 292 296 301 303 304 309 310 313 316 314 317 315 317 318 315 307 309 312 318 301 308 296 299 297 298 299 303
263 259 265 263 260 268 269 272 279 273 273 276 279 283 286 289 291 294 296 297 300 304 307 308 310 310 310 310 311 315 319 322 314 302 311 310 306 319 293 294 294 295 297 302
Height
5954 5954 5954 5955 5955 5953 5952 5953 5951 5937 5940 5939 5935 5934 5926 5922 5920 5918 5915 5913 5912 5912 5909 5906 5902 5898 5894 5889 5885 5881 5875 5869 5862 5857 5851 5844 5837 5832 5825 5821 5818 5817 5816 5815
5953 5956 5957 5954 5952 5950 5951 5951 5949 5946 5939 5935 5934 5927 5923 5919 5918 5915 5913 5911 5910 5909 5907 5903 5900 5897 5893 5888 5884 5880 5873 5866 5860 5854 5847 5839 5833 5826 5820 5816 5811 5811 5811 5810
5951 5951 5950 5950 5951 5952 5952 5945 5946 5943 5941 5926 5926 5918 5915 5913 5914 5913 5911 5910 5909 5907 5903 5901 5899 5895 5892 5887 5883 5878 5870 5863 5857 5850 5843 5837 5830 5823 5818 5811 5807 5806 5806 5805
5951 5952 5948 5948 5949 5949 5948 5945 5940 5938 5937 5934 5924 5918 5912 5911 5912 5911 5909 5908 5907 5904 5903 5902 5898 5894 5891 5886 5881 5875 5868 5860 5852 5845 5839 5833 5828 5821 5815 5808 5801 5800 5801 5802
5947 5950 5947 5947 5948 5944 5941 5938 5934 5932 5932 5931 5925 5921 5908 5877 5913 5912 5910 5907 5905 5903 5902 5900 5897 5893 5889 5883 5878 5872 5865 5856 5849 5842 5836 5830 5823 5818 5812 5805 5800 5796 5797 5798
5941 5944 5942 5941 5940 5939 5937 5934 5928 5926 5918 5919 5921 5922 5910 5908 5907 5910 5909 5907 5905 5903 5900 5898 5894 5890 5887 5882 5875 5869 5861 5853 5845 5839 5833 5826 5821 5815 5809 5803 5798 5794 5793 5794
5940 5940 5942 5939 5938 5937 5935 5934 5926 5924 5901 5918 5918 5919 5907 5901 5908 5909 5908 5906 5904 5903 5900 5898 5894 5890 5885 5878 5872 5865 5858 5850 5842 5837 5830 5824 5818 5812 5807 5801 5796 5792 5790 5789
5944 5944 5939 5936 5937 5937 5935 5933 5932 5927 5925 5921 5912 5911 5894 5908 5907 5909 5908 5906 5904 5902 5899 5896 5893 5887 5882 5876 5869 5862 5855 5847 5839 5833 5827 5821 5816 5811 5805 5800 5795 5791 5787 5785
5941 5941 5935 5933 5934 5933 5934 5930 5929 5924 5922 5922 5910 5910 5891 5902 5906 5908 5906 5904 5902 5899 5896 5893 5888 5884 5878 5873 5868 5859 5851 5843 5836 5830 5824 5819 5813 5808 5802 5797 5793 5789 5786 5782
5934 5935 5936 5929 5930 5929 5929 5928 5924 5922 5920 5912 5916 5905 5901 5899 5900 5904 5903 5901 5899 5897 5893 5890 5886 5881 5875 5870 5862 5856 5848 5841 5834 5828 5822 5816 5811 5806 5800 5796 5791 5788 5786 5782
5929 5930 5933 5929 5929 5932 5930 5927 5914 5921 5921 5915 5914 5903 5904 5898 5903 5903 5902 5899 5897 5894 5891 5887 5883 5877 5872 5866 5860 5854 5846 5839 5833 5827 5821 5815 5810 5804 5799 5795 5790 5787 5784 5781
5925 5925 5927 5930 5926 5927 5923 5922 5921 5919 5918 5914 5911 5903 5902 5884 5900 5900 5899 5897 5894 5891 5889 5885 5879 5874 5869 5863 5856 5849 5843 5836 5830 5824 5818 5813 5807 5802 5797 5793 5789 5785 5781 5778
5920 5922 5923 5926 5928 5915 5917 5921 5918 5915 5913 5914 5915 5909 5899 5897 5898 5897 5896 5894 5891 5889 5886 5882 5876 5871 5865 5859 5852 5846 5840 5833 5827 5821 5815 5810 5804 5799 5795 5791 5788 5783 5779 5775
5916 5918 5919 5923 5924 5919 5918 5920 5916 5914 5911 5912 5913 5911 5898 5893 5892 5892 5892 5891 5888 5884 5882 5878 5873 5867 5861 5855 5849 5842 5837 5830 5824 5818 5812 5807 5802 5798 5793 5789 5786 5781 5777 5774
5913 5914 5916 5918 5920 5917 5916 5917 5916 5912 5909 5907 5905 5900 5901 5897 5891 5887 5885 5886 5884 5880 5877 5873 5868 5864 5857 5851 5845 5839 5833 5827 5821 5814 5809 5805 5800 5795 5791 5788 5783 5779 5775 5771
5909 5910 5911 5911 5913 5912 5910 5911 5909 5908 5905 5901 5897 5893 5894 5892 5890 5884 5881 5881 5879 5876 5872 5867 5863 5858 5853 5847 5840 5834 5828 5823 5817 5811 5806 5801 5797 5792 5788 5785 5780 5776 5772 5768
5905 5906 5908 5909 5909 5906 5906 5904 5902 5902 5899 5896 5891 5890 5878 5875 5884 5881 5877 5876 5876 5872 5867 5863 5859 5854 5848 5842 5836 5830 5824 5818 5812 5807 5802 5797 5792 5787 5783 5779 5775 5771 5765 5760
5900 5900 5902 5904 5904 5901 5902 5895 5893 5893 5891 5888 5885 5883 5881 5881 5878 5877 5874 5873 5870 5866 5862 5858 5853 5848 5842 5836 5830 5824 5819 5813 5808 5802 5797 5792 5787 5783 5778 5773 5768 5764 5759 5754
5895 5896 5897 5900 5901 5900 5897 5878 5886 5888 5887 5883 5882 5880 5877 5875 5874 5873 5871 5868 5865 5861 5857 5853 5848 5842 5837 5831 5824 5819 5813 5808 5802 5797 5792 5786 5782 5777 5772 5767 5763 5758 5753 5748
5889 5889 5890 5895 5889 5883 5892 5885 5882 5881 5882 5880 5874 5875 5874 5872 5872 5869 5865 5863 5860 5856 5851 5847 5841 5836 5831 5824 5818 5812 5808 5802 5796 5790 5785 5780 5775 5770 5766 5761 5757 5752 5746 5740
5883 5884 5885 5889 5888 5888 5883 5878 5878 5878 5880 5875 5872 5871 5869 5868 5868 5864 5860 5857 5853 5849 5845 5840 5836 5830 5824 5817 5812 5807 5801 5795 5789 5783 5777 5772 5768 5763 5758 5753 5748 5743 5738 5732
5878 5877 5882 5883 5880 5881 5872 5872 5872 5871 5869 5868 5866 5866 5863 5862 5860 5857 5855 5851 5847 5844 5838 5833 5829 5823 5817 5811 5805 5799 5793 5787 5781 5775 5770 5765 5760 5754 5749 5745 5740 5734 5729 5723
5872 5874 5873 5874 5875 5866 5867 5866 5864 5863 5862 5861 5860 5859 5857 5855 5852 5849 5845 5843 5840 5835 5830 5824 5819 5814 5809 5803 5797 5791 5785 5779 5773 5768 5762 5757 5751 5746 5740 5735 5730 5724 5718 5714
5863 5860 5863 5862 5864 5864 5859 5855 5855 5856 5855 5854 5853 5851 5850 5848 5846 5842 5838 5832 5829 5825 5821 5816 5812 5807 5800 5795 5789 5784 5778 5771 5766 5760 5754 5749 5742 5737 5732 5725 5719 5713 5709 5703
5859 5852 5853 5852 5853 5851 5850 5843 5849 5848 5847 5846 5844 5843 5841 5838 5836 5833 5829 5824 5819 5816 5812 5807 5803 5797 5790 5784 5780 5774 5769 5764 5758 5751 5745 5738 5730 5724 5717 5713 5709 5703 5699 5694
5846 5846 5844 5844 5844 5839 5844 5838 5839 5838 5837 5836 5835 5833 5832 5829 5826 5823 5820 5816 5811 5806 5802 5797 5792 5789 5782 5775 5769 5763 5758 5752 5746 5741 5736 5732 5717 5711 5703 5698 5695 5692 5687 5685